Tracking 29892 objects as of 21-Nov-2024
HD Live streaming from Space Station
objects crossing your sky now

NEUSAR

Track NEUSAR now!
10-day predictions


NORAD ID: 52937
Int'l Code: 2022-072C
Perigee: 493.5 km
Apogee: 494.4 km
Inclination: 10.0 °
Period: 94.3 minutes
Semi major axis: 6864 km
RCS: Unknown
Launch date: June 30, 2022
Source: Singapore (SING)
Launch site: SRIHARIKOTA (SRI)
Your satellite tracking list
Your tracking list is empty




NASA's NSSDC Master Catalog

Two Line Element Set (TLE):
1 52937U 22072C   24325.53138959  .00035712  00000-0  12889-2 0  9996
2 52937   9.9816  84.5701 0000649 275.3612  84.6531 15.26321770132086
Source of the keplerian elements: AFSPC